Sigfox identifier Datetime Temperature Humidity SNR
003A5422 2019-04-23 15:11:03 16 31 22.6
003A5422 2019-04-23 14:36:46 15.8 31 22.5
003A5422 2019-04-23 14:02:28 15.8 31 22.6
003A5422 2019-04-23 13:28:11 15.8 31 22.7
003A5422 2019-04-23 12:53:54 15.7 31 22.6
003A5422 2019-04-23 12:19:38 15.7 31 22.3
003A5422 2019-04-23 11:45:21 15.6 31 22.4
003A5422 2019-04-23 11:11:05 15.6 31 22.6
003A5422 2019-04-23 10:36:49 15.6 31 22.6
003A5422 2019-04-23 10:02:32 15.6 31 22.7
003A5422 2019-04-23 09:28:15 15.6 31 22.4
003A5422 2019-04-23 08:53:58 15.6 31 22.2
003A5422 2019-04-23 08:19:41 15.6 31 22.1
003A5422 2019-04-23 07:45:24 15.6 31 22.1
003A5422 2019-04-23 07:11:06 15.6 31 22.1
003A5422 2019-04-23 06:36:49 15.6 30 22.3
003A5422 2019-04-23 06:02:33 15.6 30 22.4
003A5422 2019-04-23 05:28:16 15.6 30 22.5
003A5422 2019-04-23 04:53:59 15.6 30 22.5
003A5422 2019-04-23 04:19:43 15.6 30 22.6
003A5422 2019-04-23 03:45:26 15.6 30 22.6
003A5422 2019-04-23 03:11:09 15.6 30 22.7
003A5422 2019-04-23 02:36:51 15.7 30 22.8
003A5422 2019-04-23 02:02:33 15.8 30 22.8
003A5422 2019-04-23 01:28:16 15.8 30 22.9
003A5422 2019-04-23 00:54:00 15.8 30 22.9
003A5422 2019-04-23 00:19:43 15.8 30 22.9
003A5422 2019-04-22 23:45:27 15.8 30 22.8
003A5422 2019-04-22 23:11:09 15.8 30 22.8
003A5422 2019-04-22 22:36:52 15.8 30 22.8
003A5422 2019-04-22 22:02:35 15.9 30 22.8
003A5422 2019-04-22 21:28:17 15.8 30 22.7
003A5422 2019-04-22 20:54:01 15.8 30 22.6
003A5422 2019-04-22 20:19:44 15.9 30 22.6
003A5422 2019-04-22 19:45:28 15.8 30 22.6
003A5422 2019-04-22 19:11:11 15.8 30 22.6
003A5422 2019-04-22 18:36:54 15.8 30 22.6
003A5422 2019-04-22 18:02:37 15.8 30 22.6
003A5422 2019-04-22 17:28:20 15.8 30 22.5
003A5422 2019-04-22 16:54:04 15.8 30 22.4
003A5422 2019-04-22 16:19:47 15.8 30 22.4
003A5422 2019-04-22 15:45:30 15.7 30 22.2
003A5422 2019-04-22 15:11:12 15.7 30 22.2
003A5422 2019-04-22 14:36:55 15.7 30 22.2
003A5422 2019-04-22 14:02:37 15.6 30 22
003A5422 2019-04-22 13:28:20 15.6 30 22
003A5422 2019-04-22 12:54:03 15.6 30 21.9
003A5422 2019-04-22 12:19:46 15.6 30 21.7
003A5422 2019-04-22 11:45:29 15.6 30 21.6
003A5422 2019-04-22 11:11:11 15.6 30 21.7
003A5422 2019-04-22 10:36:54 15.6 30 21.8
003A5422 2019-04-22 10:02:37 15.6 30 21.7
003A5422 2019-04-22 09:28:19 15.6 30 21.7
003A5422 2019-04-22 08:54:03 15.6 30 21.6
003A5422 2019-04-22 08:19:45 15.6 30 21.6
003A5422 2019-04-22 07:45:28 15.6 30 21.6
003A5422 2019-04-22 07:11:10 15.6 30 21.6
003A5422 2019-04-22 06:36:53 15.6 30 21.7
003A5422 2019-04-22 06:02:34 15.6 30 21.7
003A5422 2019-04-22 05:28:17 15.6 30 21.8
003A5422 2019-04-22 04:54:00 15.6 30 21.7
003A5422 2019-04-22 04:19:41 15.6 30 21.8
003A5422 2019-04-22 03:45:21 15.6 29 21.8
003A5422 2019-04-22 03:11:02 15.6 29 21.6
003A5422 2019-04-22 02:36:44 15.6 29 21.7
003A5422 2019-04-22 02:02:25 15.6 29 21.6
003A5422 2019-04-22 01:28:08 15.6 29 21.7
003A5422 2019-04-22 00:53:51 15.6 29 21.8
003A5422 2019-04-22 00:19:33 15.6 29 21.8
003A5422 2019-04-21 23:45:15 15.6 29 21.9
003A5422 2019-04-21 23:10:57 15.6 29 22
003A5422 2019-04-21 22:36:39 15.6 29 22.1
003A5422 2019-04-21 22:02:22 15.6 29 22
003A5422 2019-04-21 21:28:03 15.5 29 22
003A5422 2019-04-21 20:53:45 15.6 29 22
003A5422 2019-04-21 20:19:29 15.5 29 22
003A5422 2019-04-21 19:45:12 15.5 29 22.1
003A5422 2019-04-21 19:10:55 15.5 29 22.1
003A5422 2019-04-21 18:36:38 15.5 29 22.2
003A5422 2019-04-21 18:02:21 15.5 29 22.2
003A5422 2019-04-21 17:28:04 15.5 29 22.3
003A5422 2019-04-21 16:53:47 15.5 29 22.3
003A5422 2019-04-21 16:19:30 15.5 29 22.4
003A5422 2019-04-21 15:45:13 15.5 29 22.4
003A5422 2019-04-21 15:10:56 15.5 29 22.4
003A5422 2019-04-21 14:36:38 15.5 29 22.4
003A5422 2019-04-21 14:02:21 15.5 29 22.4
003A5422 2019-04-21 13:28:04 15.6 29 22.3
003A5422 2019-04-21 12:53:47 15.6 29 22.5
003A5422 2019-04-21 12:19:29 15.6 29 22.4
003A5422 2019-04-21 11:45:12 15.6 29 22.4
003A5422 2019-04-21 11:10:54 15.6 29 22.4
003A5422 2019-04-21 10:36:35 15.6 29 22.3
003A5422 2019-04-21 10:02:17 15.6 29 22.3
003A5422 2019-04-21 09:28:00 15.6 29 22.3
003A5422 2019-04-21 08:53:43 15.6 29 22.2
003A5422 2019-04-21 08:19:25 15.6 29 22.3
003A5422 2019-04-21 07:45:07 15.6 29 22.3
003A5422 2019-04-21 07:10:49 15.6 29 22.3
003A5422 2019-04-21 06:36:32 15.6 29 22.4
003A5422 2019-04-21 06:02:14 15.6 29 22.4
003A5422 2019-04-21 05:27:56 15.6 28 22.5
003A5422 2019-04-21 04:53:39 15.6 28 22.5
003A5422 2019-04-21 04:19:21 15.6 28 22.3
003A5422 2019-04-21 03:45:03 15.6 28 22.3
003A5422 2019-04-21 03:10:45 15.6 28 22.1
003A5422 2019-04-21 02:36:28 15.6 28 22
003A5422 2019-04-21 02:02:10 15.6 28 21.9
003A5422 2019-04-21 01:27:53 15.6 28 21.7
003A5422 2019-04-21 00:53:34 15.6 28 21.8
003A5422 2019-04-21 00:19:16 15.6 28 21.9
003A5422 2019-04-20 23:44:57 15.6 28 21.9
003A5422 2019-04-20 23:10:39 15.6 28 22
003A5422 2019-04-20 22:36:21 15.6 28 22.1
003A5422 2019-04-20 22:02:02 15.6 28 22.2
003A5422 2019-04-20 21:27:44 15.6 28 22.2
003A5422 2019-04-20 20:53:27 15.6 28 22.1
003A5422 2019-04-20 20:19:10 15.6 28 22.1
003A5422 2019-04-20 19:44:53 15.6 28 22.1
003A5422 2019-04-20 19:10:36 15.6 28 22.2
003A5422 2019-04-20 18:36:19 15.6 28 22.1
003A5422 2019-04-20 18:02:01 15.6 28 22.1
003A5422 2019-04-20 17:27:44 15.6 28 22.1
003A5422 2019-04-20 16:53:25 15.6 28 22
003A5422 2019-04-20 16:19:07 15.6 28 21.9
003A5422 2019-04-20 15:44:49 15.6 28 21.8
003A5422 2019-04-20 15:10:32 15.6 28 21.7
003A5422 2019-04-20 14:36:15 15.6 28 21.8
003A5422 2019-04-20 14:01:59 15.6 28 21.9
003A5422 2019-04-20 13:27:42 15.6 28 21.8
003A5422 2019-04-20 12:53:25 15.6 28 21.9
003A5422 2019-04-20 12:19:08 15.6 28 22
003A5422 2019-04-20 11:44:51 15.7 28 22
003A5422 2019-04-20 11:10:33 15.8 28 22.2
003A5422 2019-04-20 10:36:16 15.8 27 22.1
003A5422 2019-04-20 10:01:59 15.8 27 22.1
003A5422 2019-04-20 09:27:42 15.8 27 22.1
003A5422 2019-04-20 08:53:25 15.8 27 22
003A5422 2019-04-20 08:19:08 15.8 27 22.1
003A5422 2019-04-20 07:44:50 15.8 27 22
003A5422 2019-04-20 07:10:33 15.8 27 22.2
003A5422 2019-04-20 06:36:16 15.8 27 22.2
003A5422 2019-04-20 06:01:59 15.8 27 22.3
003A5422 2019-04-20 05:27:42 15.8 27 22.3
003A5422 2019-04-20 04:53:22 15.9 27 22.3
003A5422 2019-04-20 04:19:03 16 27 22.3
003A5422 2019-04-20 03:44:46 16 27 22.3
003A5422 2019-04-20 03:10:28 16 27 22.3
003A5422 2019-04-20 02:36:11 16 27 22.5
003A5422 2019-04-20 02:01:54 16 27 22.5
003A5422 2019-04-20 01:27:37 16 27 22.5
003A5422 2019-04-20 00:53:19 16 27 22.5
003A5422 2019-04-20 00:19:01 16 27 22.4
003A5422 2019-04-19 23:44:42 16 27 22.5
003A5422 2019-04-19 23:10:25 16 27 22.7
003A5422 2019-04-19 22:36:09 16 27 22.7
003A5422 2019-04-19 22:01:50 16.1 27 22.7
003A5422 2019-04-19 21:27:33 16.1 27 22.7
003A5422 2019-04-19 20:53:15 16.1 27 22.7
003A5422 2019-04-19 20:18:57 16.1 27 22.6
003A5422 2019-04-19 19:44:41 16 27 22.6
003A5422 2019-04-19 19:10:24 16 27 22.6
003A5422 2019-04-19 18:36:07 16 27 22.6
003A5422 2019-04-19 18:01:49 16 27 22.5
003A5422 2019-04-19 17:27:32 16 27 22.5
003A5422 2019-04-19 16:53:16 16 27 22.4
003A5422 2019-04-19 16:18:58 16 27 22.4
003A5422 2019-04-19 15:44:42 16 27 22.3
003A5422 2019-04-19 15:10:24 16 27 22.3
003A5422 2019-04-19 14:36:07 16 27 22.2
003A5422 2019-04-19 14:01:50 16 26 22
003A5422 2019-04-19 13:27:32 16 26 22
003A5422 2019-04-19 12:53:16 16 26 22
003A5422 2019-04-19 12:18:59 16 26 21.8
003A5422 2019-04-19 11:44:42 16 26 21.8
003A5422 2019-04-19 11:10:24 16 26 21.9
003A5422 2019-04-19 10:36:08 16 26 21.9
003A5422 2019-04-19 10:01:51 16 26 21.9
003A5422 2019-04-19 09:27:34 16 26 21.8
003A5422 2019-04-19 08:53:18 16 26 21.5
003A5422 2019-04-19 08:19:01 16 26 21.4
003A5422 2019-04-19 07:44:45 16 26 21.2
003A5422 2019-04-19 07:10:29 16 26 21.2
003A5422 2019-04-19 06:36:12 16 26 21.1
003A5422 2019-04-19 06:01:56 16.2 26 21.4
003A5422 2019-04-19 05:27:38 16.2 26 21.8
003A5422 2019-04-19 04:53:21 16.3 26 21.9
003A5422 2019-04-19 04:19:03 16.3 26 22.1
003A5422 2019-04-19 03:44:44 16.3 26 22
003A5422 2019-04-19 03:10:26 16.3 26 21.9
003A5422 2019-04-19 02:36:08 16.4 26 21.8
003A5422 2019-04-19 02:01:51 16.5 26 21.8
003A5422 2019-04-19 01:27:32 16.5 26 22
003A5422 2019-04-19 00:53:14 16.5 26 22.1
003A5422 2019-04-19 00:18:55 16.5 26 22.6
003A5422 2019-04-18 23:44:37 16.5 26 22.8
003A5422 2019-04-18 23:10:19 16.6 26 22.8
003A5422 2019-04-18 22:36:01 16.5 26 22.8
003A5422 2019-04-18 22:01:41 16.6 26 22.8
003A5422 2019-04-18 21:27:22 16.5 26 22.6
003A5422 2019-04-18 20:53:04 16.5 26 22.5
003A5422 2019-04-18 20:18:46 16.5 26 22.3
003A5422 2019-04-18 19:44:27 16.5 26 22.2
003A5422 2019-04-18 19:10:10 16.5 25 22.1
003A5422 2019-04-18 18:35:51 16.5 25 22.1
003A5422 2019-04-18 18:01:34 16.5 25 22.1
003A5422 2019-04-18 17:27:17 16.5 25 22
003A5422 2019-04-18 16:52:59 16.4 25 21.9
003A5422 2019-04-18 16:18:42 16.3 25 21.9
003A5422 2019-04-18 15:44:25 16.3 25 21.5
003A5422 2019-04-18 15:10:08 16.3 25 21
003A5422 2019-04-18 14:35:51 16.3 25 20.6
003A5422 2019-04-18 14:01:33 16.3 25 20
003A5422 2019-04-18 13:27:16 16.3 25 19.9
003A5422 2019-04-18 12:52:59 16.3 25 19.9
003A5422 2019-04-18 12:18:41 16.3 25 19.9
003A5422 2019-04-18 11:44:24 16.3 25 19.6
003A5422 2019-04-18 11:10:08 16.3 25 19.2
003A5422 2019-04-18 10:35:50 16.3 25 18.5
003A5422 2019-04-18 10:01:32 16.3 25 16.9
003A5422 2019-04-18 09:27:15 16.3 25 16.2
003A5422 2019-04-18 08:52:58 16.4 25 15.5
003A5422 2019-04-18 08:18:41 16.4 25 15.1
003A5422 2019-04-18 07:44:23 16.4 24 15.2
003A5422 2019-04-18 07:10:08 16.4 24 15.2
003A5422 2019-04-18 06:35:49 16.5 24 15.2
003A5422 2019-04-18 06:01:32 16.5 24 16.4
003A5422 2019-04-18 05:27:15 16.5 24 16.8
003A5422 2019-04-18 04:52:58 16.5 24 17
003A5422 2019-04-18 04:18:43 16.5 24 17
003A5422 2019-04-18 03:44:24 16.5 24 17
003A5422 2019-04-18 03:10:06 16.7 24 17.5
003A5422 2019-04-18 02:35:49 16.7 24 17.7
003A5422 2019-04-18 02:01:32 16.7 24 17.7
003A5422 2019-04-18 01:27:15 16.8 24 18
003A5422 2019-04-18 00:52:57 16.9 24 18.4
003A5422 2019-04-18 00:18:39 16.9 24 18.4
003A5422 2019-04-17 23:44:22 16.9 24 18.7
003A5422 2019-04-17 23:10:03 16.9 24 18.9
003A5422 2019-04-17 22:35:45 16.8 24 19
003A5422 2019-04-17 22:01:32 16.9 24 19.2
003A5422 2019-04-17 21:27:11 16.8 24 19.5
003A5422 2019-04-17 20:52:54 16.9 24 20.2
003A5422 2019-04-17 20:18:36 16.9 24 20.3
003A5422 2019-04-17 19:44:19 16.9 23 20.9
003A5422 2019-04-17 19:10:02 16.9 23 22
003A5422 2019-04-17 18:35:45 16.9 23 22.1
003A5422 2019-04-17 18:01:28 16.9 23 22.1
003A5422 2019-04-17 17:27:11 16.9 23 22.2
003A5422 2019-04-17 16:52:53 16.9 23 22.3
003A5422 2019-04-17 16:18:35 16.9 23 22.4
003A5422 2019-04-17 15:44:18 17 23 22.3
003A5422 2019-04-17 15:10:01 17.1 23 22.8
003A5422 2019-04-17 14:35:44 17.1 23 22.9
003A5422 2019-04-17 14:01:28 17.1 23 23.1
003A5422 2019-04-17 12:52:53 17.2 23 23.1
003A5422 2019-04-17 12:18:36 17.2 23 23
003A5422 2019-04-17 11:44:19 17.3 23 22.9
003A5422 2019-04-17 11:10:02 17.3 23 22.9
003A5422 2019-04-17 10:35:46 17.5 23 22.8
003A5422 2019-04-17 10:01:30 17.5 22 22.6
003A5422 2019-04-17 09:27:13 17.7 22 22.7
003A5422 2019-04-17 08:52:56 17.8 22 22.6
003A5422 2019-04-17 08:18:39 18 22 22.5
003A5422 2019-04-17 07:44:21 18 22 22.8
003A5422 2019-04-17 07:10:05 18 22 23
003A5422 2019-04-17 06:35:47 18.2 22 23
003A5422 2019-04-17 06:01:29 18.2 22 22.7
003A5422 2019-04-17 05:27:12 18.2 22 22.7
003A5422 2019-04-17 04:52:55 18.3 22 22.3
003A5422 2019-04-17 04:18:37 18.4 22 21.2
003A5422 2019-04-17 03:44:19 18.4 22 21.1
003A5422 2019-04-17 03:10:01 18.4 22 21.1
003A5422 2019-04-17 02:35:44 18.6 22 21.1
003A5422 2019-04-17 02:01:26 18.6 22 21
003A5422 2019-04-17 01:27:08 18.6 22 20.8
003A5422 2019-04-17 00:52:50 18.7 22 20.8
003A5422 2019-04-17 00:18:31 18.8 22 19.6
003A5422 2019-04-16 23:44:13 18.9 22 19.4
003A5422 2019-04-16 23:09:55 19 22 19.2
003A5422 2019-04-16 22:35:37 19.2 22 19.1
003A5422 2019-04-16 22:01:18 19.3 22 19
003A5422 2019-04-16 21:27:02 19.5 22 19.1
003A5422 2019-04-16 20:52:42 19.5 22 19
003A5422 2019-04-16 20:18:23 19.7 22 19
003A5422 2019-04-16 19:44:04 19.7 22 19
003A5422 2019-04-16 19:09:45 19.9 22 19
003A5422 2019-04-16 18:35:28 19.9 22 19.1
003A5422 2019-04-16 17:26:49 20.3 22 19
003A5422 2019-04-16 16:52:30 20.5 22 18.2
003A5422 2019-04-16 16:18:12 20.7 22 17.1
003A5422 2019-04-16 15:09:33 21 22 16.7
003A5422 2019-04-16 14:35:13 21 22 16
003A5422 2019-04-16 14:00:54 21 22 15.7
003A5422 2019-04-16 12:52:17 21 22 16.1
003A5422 2019-04-16 12:18:00 20.9 22 16.1
003A5422 2019-04-16 11:09:18 20.7 22 16.2
003A5422 2019-04-16 10:00:45 20.8 22 16.4
003A5422 2019-04-16 09:26:25 20.8 22 16.2
003A5422 2019-04-16 08:52:09 20.8 22 16
003A5422 2019-04-16 08:17:46 20.7 22 16
003A5422 2019-04-16 07:43:32 20.8 22 15.8
003A5422 2019-04-16 07:09:10 20.8 22 15.9
003A5422 2019-04-16 06:34:51 20.8 21 15.7
003A5422 2019-04-16 06:00:33 20.8 21 15.3
003A5422 2019-04-16 05:26:18 20.8 21 15.7
003A5422 2019-04-16 04:51:57 20.9 21 17.6
003A5422 2019-04-16 04:17:38 20.9 21 18.9
003A5422 2019-04-16 03:43:20 21 21 19.5
003A5422 2019-04-16 03:09:03 21 21 19.8
003A5422 2019-04-16 02:34:45 21 21 20.8
003A5422 2019-04-16 02:00:26 21 21 21.1
003A5422 2019-04-16 01:26:07 21 21 21.6
003A5422 2019-04-16 00:51:49 21 21 22.7
003A5422 2019-04-16 00:17:30 21 20 23
003A5422 2019-04-15 23:43:12 21 20 23.3
003A5422 2019-04-15 23:08:53 21 20 23.7
003A5422 2019-04-15 22:34:34 21 20 24
003A5422 2019-04-15 22:00:15 21.1 20 24.4
003A5422 2019-04-15 21:25:57 21.1 20 24.7
003A5422 2019-04-15 20:51:38 21.2 20 24.9
003A5422 2019-04-15 20:17:21 21.2 20 25.1
003A5422 2019-04-15 19:43:01 21.2 20 25.3
003A5422 2019-04-15 19:08:42 21.4 19 25.8
003A5422 2019-04-15 18:34:23 21.4 19 25.9
003A5422 2019-04-15 18:00:05 21.4 19 26.2
003A5422 2019-04-15 17:25:48 21.6 19 26.2
003A5422 2019-04-15 16:51:28 21.6 19 26.4
003A5422 2019-04-15 15:42:51 21.8 19 26.7
003A5422 2019-04-15 15:08:31 21.9 18 26.8
003A5422 2019-04-15 12:16:53 22.5 17 26.9
003A5422 2019-04-15 11:42:33 22.5 16 27
003A5422 2019-04-15 11:08:12 22.5 16 26.9
003A5422 2019-04-15 10:33:52 22.5 16 26.9
003A5422 2019-04-15 09:59:33 22.4 17 26.9
003A5422 2019-04-15 09:25:12 22.2 17 26.9
003A5422 2019-04-15 08:50:54 22.2 17 26.9
003A5422 2019-04-15 08:16:35 22 17 26.8
003A5422 2019-04-15 07:42:16 22 17 26.5
003A5422 2019-04-15 07:07:57 22 17 26.4
003A5422 2019-04-15 06:33:39 22 17 26.5
003A5422 2019-04-15 05:59:19 22 17 26.6
003A5422 2019-04-15 05:25:01 22 17 26.5
003A5422 2019-04-15 04:50:42 22 17 26.7
003A5422 2019-04-15 04:16:22 22 17 26.6
003A5422 2019-04-15 03:42:03 22 17 26.6
003A5422 2019-04-15 03:07:44 22 17 26.6
003A5422 2019-04-15 02:33:25 22 17 26.5
003A5422 2019-04-15 01:59:06 21.9 17 26.2
003A5422 2019-04-15 01:24:46 21.9 17 26.2
003A5422 2019-04-15 00:50:26 22 17 26.1
003A5422 2019-04-15 00:16:07 22 17 26.3
003A5422 2019-04-14 23:41:45 21.9 17 26.2
003A5422 2019-04-14 23:07:26 22 18 26.1
003A5422 2019-04-14 22:33:07 22 18 26
003A5422 2019-04-14 21:58:47 22 18 26.1
003A5422 2019-04-14 21:24:28 22 18 25.9
003A5422 2019-04-14 20:50:09 22 18 25.8
003A5422 2019-04-14 20:15:49 22.1 18 25.9
003A5422 2019-04-14 19:41:30 22.1 18 25.9
003A5422 2019-04-14 19:07:10 22 18 26
003A5422 2019-04-14 18:32:50 22 18 26
003A5422 2019-04-14 17:58:29 22 18 26.2
003A5422 2019-04-14 17:24:09 22 18 26.3
003A5422 2019-04-14 16:49:50 22 18 26.2
003A5422 2019-04-14 16:15:31 22 18 26.4
003A5422 2019-04-14 15:41:12 22 18 26.5
003A5422 2019-04-14 15:06:53 22 18 26.7
003A5422 2019-04-14 14:32:33 22 18 26.8
003A5422 2019-04-14 13:58:13 22 18 26.7
003A5422 2019-04-14 13:23:54 22 18 26.7
003A5422 2019-04-14 12:49:36 22 18 26.6
003A5422 2019-04-14 12:15:16 22.1 18 26.8
003A5422 2019-04-14 11:40:56 22 18 26.9
003A5422 2019-04-14 11:06:37 22 18 27
003A5422 2019-04-14 10:32:18 22 18 27.1
003A5422 2019-04-14 09:57:59 22 18 27.1
003A5422 2019-04-14 09:23:41 22 18 27.1
003A5422 2019-04-14 08:49:22 22 18 27.1
003A5422 2019-04-14 08:15:01 22 18 27.3
003A5422 2019-04-14 07:40:42 22 18 27.3
003A5422 2019-04-14 07:06:23 22 18 27.4
003A5422 2019-04-14 06:32:04 22 18 27.4
003A5422 2019-04-14 05:57:44 22 18 27.5
003A5422 2019-04-14 05:23:25 22 18 27.5
003A5422 2019-04-14 04:49:04 22 18 27.4
003A5422 2019-04-14 04:14:45 22 18 27.5
003A5422 2019-04-14 03:40:25 22 18 27.6
003A5422 2019-04-14 03:06:04 22 18 27.5
003A5422 2019-04-14 02:31:42 22 18 27.6
003A5422 2019-04-14 01:57:21 22 18 27.4
003A5422 2019-04-14 01:23:02 22 18 27.2
003A5422 2019-04-14 00:48:42 22.1 18 26.9
003A5422 2019-04-14 00:14:21 22.1 18 26.8
003A5422 2019-04-13 23:40:01 22.1 18 26.9
003A5422 2019-04-13 23:05:40 22.2 17 26.9
003A5422 2019-04-13 22:31:19 22.2 17 26.9
003A5422 2019-04-13 21:56:59 22.2 17 26.7
003A5422 2019-04-13 21:22:39 22.2 17 26.6
003A5422 2019-04-13 20:48:19 22.2 17 26.5
003A5422 2019-04-13 20:13:59 22.2 17 26.4
003A5422 2019-04-13 19:39:38 22.2 17 26.4
003A5422 2019-04-13 19:05:18 22.2 18 26.3
003A5422 2019-04-13 18:30:57 22.3 18 26.3
003A5422 2019-04-13 17:56:38 22.3 18 26.1
003A5422 2019-04-13 17:22:17 22.4 18 26.2
003A5422 2019-04-13 16:47:58 22.5 18 25.9
003A5422 2019-04-13 16:13:37 22.5 18 26
003A5422 2019-04-13 15:39:17 22.5 18 25.8
003A5422 2019-04-13 15:04:58 22.5 18 25.8
003A5422 2019-04-13 14:30:37 22.5 18 25.9
003A5422 2019-04-13 13:56:19 22.5 18 25.7
003A5422 2019-04-13 13:21:58 22.5 18 25.4
003A5422 2019-04-13 12:47:38 22.5 18 25.5
003A5422 2019-04-13 12:13:17 22.5 18 25.8
003A5422 2019-04-13 11:38:56 22.5 18 25.8
003A5422 2019-04-13 11:04:35 22.5 18 25.8
003A5422 2019-04-13 10:30:14 22.5 18 25.7
003A5422 2019-04-13 09:55:54 22.5 18 25.9
003A5422 2019-04-13 09:21:34 22.5 18 25.7
003A5422 2019-04-13 08:47:13 22.5 17 25.6
003A5422 2019-04-13 08:12:52 22.5 17 25.5
003A5422 2019-04-13 07:38:32 22.5 17 25.9
003A5422 2019-04-13 07:04:11 22.5 17 26.3
003A5422 2019-04-13 06:29:50 22.5 17 26.5
003A5422 2019-04-13 05:55:29 22.5 17 26.7
003A5422 2019-04-13 05:21:07 22.5 17 26.6
003A5422 2019-04-13 04:46:46 22.5 17 26.8
003A5422 2019-04-13 04:12:26 22.5 17 27.1
003A5422 2019-04-13 03:38:05 22.5 17 27
003A5422 2019-04-13 03:03:44 22.6 18 27
003A5422 2019-04-13 02:29:23 22.6 18 27.2
003A5422 2019-04-13 01:55:02 22.7 18 27.2
003A5422 2019-04-13 01:20:42 22.7 18 27.4
003A5422 2019-04-13 00:46:23 22.7 18 27.4
003A5422 2019-04-13 00:12:02 22.7 18 27.5
003A5422 2019-04-12 23:37:41 22.7 18 27.6
003A5422 2019-04-12 23:03:19 22.9 18 27.7
003A5422 2019-04-12 22:28:59 22.9 18 27.8
003A5422 2019-04-12 21:54:36 22.9 19 27.6
003A5422 2019-04-12 21:20:14 22.9 19 27.7
003A5422 2019-04-12 20:45:52 23.1 19 27.9
003A5422 2019-04-12 20:11:32 22.9 18 28.1
003A5422 2019-04-12 19:37:11 23 18 28
003A5422 2019-04-12 19:02:50 23.1 18 28.3
003A5422 2019-04-12 18:28:28 23.2 17 28.6
003A5422 2019-04-12 17:54:06 23.3 18 29
003A5422 2019-04-12 17:19:45 23.3 19 28.8
003A5422 2019-04-12 16:45:25 23.3 19 28.6
003A5422 2019-04-12 16:11:03 23.1 19 28.2
003A5422 2019-04-12 15:36:41 23.1 19 28.1
003A5422 2019-04-12 15:02:20 22.9 20 28.7
003A5422 2019-04-12 14:27:59 22.5 21 27.9
003A5422 2019-04-12 13:53:38 22.2 22 23.5
003A5422 2019-04-12 13:19:17 21.4 24 0